Burlington, WI

8:01 AM CST on December 11, 2016 (GMT -0600)
Burlington

Weather History for KBUU - July, 2013

Change the Weather History Date:

Saturday, July 6, 2013

  Actual Average (KENW) Record (KENW)
Temperature  
Mean Temperature 69 °F -  
Max Temperature 82 °F 78 °F 102 °F (2012)
Min Temperature 56 °F 58 °F 41 °F (1983)
Cooling Degree Days 4    
Growing Degree Days 19 (Base 50)    
Moisture  
Dew Point 62 °F    
Average Humidity 78    
Maximum Humidity 100    
Minimum Humidity 48    
Precipitation  
Precipitation 0.00 in - - ()
Sea Level Pressure  
Sea Level Pressure 30.03 in    
Wind  
Wind Speed 3 mph (South)    
Max Wind Speed 10 mph    
Max Gust Speed -    
Visibility 8 miles    
Events Fog    
Averages and records for this station are not official NWS values.
T = Trace of Precipitation, MM = Missing Value Source: NWS Daily Summary

Daily Weather History Graph

Daily Weather History Graph

Search for Another Location

Airport or City:

Trip Planner

Search our weather history database for the weather conditions in past years. The results will help you decide how hot, cold, wet, or windy it might be!

Date:

Astronomy

Jul. 06, 2013 Rise Set
Actual Time 5:22 AM CDT 8:33 PM CDT
Civil Twilight 4:47 AM CDT 9:08 PM CDT
Nautical Twilight 4:03 AM CDT 9:52 PM CDT
Astronomical Twilight 3:09 AM CDT 10:46 PM CDT
Moon 4:09 AM CDT (7/6) 7:13 PM CDT (7/6)
Length of Visible Light 16h 20m
Length of Day
15h 11m
Waning Crescent, 2% of the Moon is Illuminated
Jul 6
Waning Crescent
Jul 8
New
Jul 15
First Quarter
Jul 22
Full
Jul 29
Last Quarter

Hourly Weather History & Observations

Time (CDT) Temp. Heat Index Dew Point Humidity Pressure Visibility Wind Dir Wind Speed Gust Speed Precip Events Conditions
12:15 AM 59.5 °F - 58.6 °F 97% 30.05 in 7.0 mi SW 4.6 mph - N/A   Clear
12:35 AM 60.8 °F - 59.2 °F 94% 30.05 in 7.0 mi SSW 3.5 mph - N/A   Clear
12:55 AM 61.0 °F - 59.4 °F 94% 30.05 in 7.0 mi Calm Calm - N/A   Clear
1:15 AM 59.4 °F - 58.5 °F 97% 30.04 in 5.0 mi Calm Calm - N/A   Clear
1:35 AM 58.5 °F - 57.2 °F 96% 30.04 in 5.0 mi Calm Calm - N/A   Clear
1:55 AM 57.9 °F - 57.2 °F 97% 30.05 in 5.0 mi Calm Calm - N/A   Clear
2:15 AM 57.6 °F - 57.2 °F 99% 30.05 in 3.0 mi Calm Calm - N/A   Clear
2:35 AM 58.8 °F - 58.5 °F 99% 30.05 in 4.0 mi South 4.6 mph - N/A   Clear
2:55 AM 58.6 °F - 58.3 °F 99% 30.06 in 4.0 mi South 3.5 mph - N/A   Clear
3:15 AM 56.8 °F - 56.1 °F 97% 30.06 in 3.0 mi Calm Calm - N/A   Clear
3:35 AM 57.2 °F - 56.8 °F 99% 30.06 in 3.0 mi Calm Calm - N/A   Clear
3:55 AM 59.0 °F - 58.8 °F 99% 30.05 in 3.0 mi SW 3.5 mph - N/A   Clear
4:15 AM 57.0 °F - 56.8 °F 99% 30.05 in 2.5 mi Calm Calm - N/A   Clear
4:35 AM 57.0 °F - 56.8 °F 99% 30.06 in 2.0 mi SSW 3.5 mph - N/A   Clear
4:55 AM 57.2 °F - 56.8 °F 99% 30.06 in 2.0 mi Calm Calm - N/A   Clear
5:15 AM 57.6 °F - 57.6 °F 100% 30.06 in 0.2 mi Calm Calm - N/A Fog Fog
5:35 AM 57.0 °F - 56.8 °F 99% 30.06 in 0.5 mi Calm Calm - N/A Fog Fog
5:55 AM 56.5 °F - 56.5 °F 100% 30.06 in 1.0 mi Calm Calm - N/A   Mist
6:15 AM 56.5 °F - 56.5 °F 100% 30.06 in 1.5 mi Calm Calm - N/A   Mist
6:35 AM 58.3 °F - 58.3 °F 100% 30.07 in 1.2 mi Calm Calm - N/A   Mist
6:55 AM 60.4 °F - 60.4 °F 100% 30.07 in 1.8 mi Calm Calm - N/A   Mist
7:15 AM 62.6 °F - 61.9 °F 97% 30.06 in 3.0 mi Calm Calm - N/A   Clear
7:35 AM 65.1 °F - 63.0 °F 93% 30.06 in 4.0 mi Calm Calm - N/A   Clear
7:55 AM 67.5 °F - 63.5 °F 87% 30.06 in 7.0 mi Calm Calm - N/A   Clear
8:15 AM 69.3 °F - 64.2 °F 84% 30.06 in 7.0 mi Calm Calm - N/A   Clear
8:35 AM 71.1 °F - 64.9 °F 81% 30.06 in 10.0 mi SSW 4.6 mph - N/A   Clear
8:55 AM 72.7 °F - 64.9 °F 77% 30.07 in 10.0 mi Calm Calm - N/A   Clear
9:15 AM 74.7 °F - 65.1 °F 72% 30.06 in 10.0 mi South 4.6 mph - N/A   Clear
9:35 AM 75.4 °F - 64.2 °F 68% 30.06 in 10.0 mi SSW 4.6 mph - N/A   Clear
9:55 AM 75.9 °F - 63.9 °F 66% 30.05 in 10.0 mi SSW 5.8 mph - N/A   Clear
10:15 AM 77.0 °F - 64.2 °F 65% 30.06 in 10.0 mi South 6.9 mph - N/A   Clear
10:35 AM 77.4 °F - 64.0 °F 63% 30.06 in 10.0 mi South 5.8 mph - N/A   Clear
10:55 AM 78.1 °F - 64.0 °F 62% 30.06 in 10.0 mi South 5.8 mph - N/A   Clear
11:15 AM 78.6 °F - 64.0 °F 61% 30.06 in 10.0 mi South 6.9 mph - N/A   Clear
11:35 AM 78.8 °F - 63.9 °F 60% 30.05 in 10.0 mi South 5.8 mph - N/A   Clear
11:55 AM 79.0 °F - 64.4 °F 61% 30.05 in 10.0 mi SW 4.6 mph - N/A   Clear
12:15 PM 77.7 °F - 63.5 °F 61% 30.04 in 10.0 mi South 4.6 mph - N/A   Clear
12:35 PM 79.2 °F - 63.5 °F 59% 30.04 in 10.0 mi South 5.8 mph - N/A   Clear
12:55 PM 79.3 °F - 65.1 °F 62% 30.04 in 10.0 mi SSE 4.6 mph - N/A   Scattered Clouds
1:15 PM 79.3 °F - 63.3 °F 58% 30.03 in 10.0 mi SSW 3.5 mph - N/A   Scattered Clouds
1:35 PM 80.6 °F 81.9 °F 63.0 °F 55% 30.03 in 10.0 mi South 3.5 mph - N/A   Clear
1:55 PM 79.9 °F - 62.8 °F 56% 30.03 in 10.0 mi SW 4.6 mph - N/A   Clear
2:15 PM 80.2 °F 81.2 °F 61.0 °F 52% 30.02 in 10.0 mi SSW 5.8 mph - N/A   Clear
2:35 PM 80.1 °F 81.5 °F 63.3 °F 56% 30.02 in 10.0 mi South 3.5 mph - N/A   Scattered Clouds
2:55 PM 80.6 °F 81.5 °F 61.0 °F 51% 30.02 in 10.0 mi SSW 3.5 mph - N/A   Scattered Clouds
3:15 PM 80.8 °F 81.4 °F 59.7 °F 49% 30.02 in 10.0 mi WSW 3.5 mph - N/A   Clear
3:35 PM 81.7 °F 83.2 °F 63.9 °F 55% 30.02 in 10.0 mi SSW 4.6 mph - N/A   Clear
3:55 PM 81.5 °F 82.7 °F 62.6 °F 53% 30.01 in 10.0 mi SSE 4.6 mph - N/A   Clear
4:15 PM 81.7 °F 82.9 °F 62.8 °F 53% 30.01 in 10.0 mi SW 5.8 mph - N/A   Scattered Clouds
4:35 PM 81.7 °F 82.2 °F 60.4 °F 48% 30.00 in 10.0 mi WSW 3.5 mph - N/A   Clear
4:55 PM 82.4 °F 83.2 °F 62.1 °F 50% 30.00 in 10.0 mi SSW 5.8 mph - N/A   Clear
5:15 PM 81.3 °F 82.6 °F 63.0 °F 54% 29.99 in 10.0 mi South 3.5 mph - N/A   Clear
5:35 PM 79.9 °F - 62.4 °F 55% 29.99 in 10.0 mi SSW 4.6 mph - N/A   Clear
5:55 PM 78.6 °F - 66.7 °F 67% 29.99 in 10.0 mi SE 10.4 mph - N/A   Clear
6:15 PM 79.2 °F - 67.3 °F 67% 29.99 in 10.0 mi SSE 6.9 mph - N/A   Clear
6:35 PM 77.4 °F - 66.6 °F 69% 29.98 in 10.0 mi SE 8.1 mph - N/A   Clear
6:55 PM 77.7 °F - 66.4 °F 68% 29.98 in 10.0 mi SSE 5.8 mph - N/A   Clear
7:15 PM 77.2 °F - 66.7 °F 70% 29.98 in 10.0 mi SE 6.9 mph - N/A   Clear
7:35 PM 77.0 °F - 67.3 °F 72% 29.98 in 10.0 mi Calm Calm - N/A   Clear
7:55 PM 76.1 °F - 67.3 °F 74% 29.98 in 10.0 mi SSE 3.5 mph - N/A   Clear
8:15 PM 74.8 °F - 67.1 °F 77% 29.98 in 10.0 mi SSE 5.8 mph - N/A   Clear
8:35 PM 73.8 °F - 67.1 °F 80% 29.99 in 10.0 mi SSE 3.5 mph - N/A   Clear
8:55 PM 72.1 °F - 67.1 °F 84% 29.98 in 10.0 mi Calm Calm - N/A   Clear
9:15 PM 71.1 °F - 67.1 °F 87% 29.99 in 10.0 mi Calm Calm - N/A   Clear
9:35 PM 70.5 °F - 66.4 °F 87% 30.00 in 10.0 mi Calm Calm - N/A   Clear
9:55 PM 70.0 °F - 66.2 °F 88% 30.01 in 10.0 mi Calm Calm - N/A   Clear
10:15 PM 68.5 °F - 65.3 °F 89% 30.01 in 10.0 mi South 4.6 mph - N/A   Clear
10:35 PM 67.8 °F - 64.9 °F 90% 30.02 in 10.0 mi SSW 3.5 mph - N/A   Clear
10:55 PM 67.6 °F - 64.4 °F 89% 30.02 in 10.0 mi SSW 5.8 mph - N/A   Clear
11:15 PM 67.1 °F - 64.4 °F 91% 30.02 in 10.0 mi WSW 3.5 mph - N/A   Clear
11:35 PM 66.4 °F - 64.4 °F 93% 30.02 in 7.0 mi Calm Calm - N/A   Clear
11:55 PM 66.7 °F - 64.8 °F 93% 30.01 in 7.0 mi South 3.5 mph - N/A   Clear